Change the Weather History Date:

Sunday, June 8, 2014

  Actual Average Record
Temperature  
Mean Temperature 59 °F -  
Max Temperature 66 °F 78 °F 93 °F (2011)
Min Temperature 51 °F 55 °F 47 °F (1975)
Degree Days  
Heating Degree Days 6    
Growing Degree Days 9 (Base 50)    
Moisture  
Dew Point 55 °F    
Average Humidity 85    
Maximum Humidity 94    
Minimum Humidity 66    
Precipitation  
Precipitation 0.00 in - - ()
Sea Level Pressure  
Sea Level Pressure 30.03 in    
Wind  
Wind Speed 6 mph (NNE)    
Max Wind Speed 10 mph    
Max Gust Speed 18 mph    
Visibility 10 miles    
Events      
Averages and records for this station are not official NWS values.
T = Trace of Precipitation, MM = Missing Value Source: NWS Daily Summary

Daily Weather History Graph

Daily Weather History Graph

Search for Another Location

Airport or City:

Trip Planner

Search our weather history database for the weather conditions in past years. The results will help you decide how hot, cold, wet, or windy it might be!

Date:

Astronomy

Jun. 08, 2014 Rise Set
Actual Time 5:22 AM CDT 8:33 PM CDT
Civil Twilight 4:47 AM CDT 9:07 PM CDT
Nautical Twilight 4:03 AM CDT 9:51 PM CDT
Astronomical Twilight 3:10 AM CDT 10:44 PM CDT
Moon 3:46 PM CDT (6/8) 2:20 AM CDT (6/8)
Length of Visible Light 16h 19m
Length of Day
15h 11m
Waxing Gibbous, 77% of the Moon is Illuminated
Jun 8
Waxing Gibbous
Jun 12
Full
Jun 19
Last Quarter
Jun 27
New
Jul 5
First Quarter

Hourly Weather History & Observations

Time (CDT) Temp. Dew Point Humidity Pressure Visibility Wind Dir Wind Speed Gust Speed Precip Events Conditions
12:15 AM 58.3 °F 56.3 °F 93% 29.94 in 10.0 mi NNE 5.8 mph - N/A   Mostly Cloudy
12:35 AM 58.8 °F 56.3 °F 91% 29.93 in 10.0 mi NNE 5.8 mph - N/A   Overcast
12:55 AM 59.0 °F 57.2 °F 94% 29.93 in 10.0 mi North 5.8 mph - N/A   Overcast
1:15 AM 58.3 °F 55.9 °F 92% 29.93 in 10.0 mi NNW 9.2 mph - N/A   Mostly Cloudy
1:35 AM 58.3 °F 56.3 °F 93% 29.93 in 10.0 mi NNW 8.1 mph - N/A   Mostly Cloudy
1:55 AM 58.3 °F 56.3 °F 93% 29.93 in 10.0 mi NNW 8.1 mph - N/A   Mostly Cloudy
2:15 AM 58.3 °F 56.3 °F 93% 29.93 in 10.0 mi North 10.4 mph 18.4 mph N/A   Overcast
2:35 AM 58.3 °F 56.3 °F 93% 29.94 in 10.0 mi North 6.9 mph - N/A   Overcast
2:55 AM 58.3 °F 56.3 °F 93% 29.94 in 10.0 mi North 8.1 mph - N/A   Mostly Cloudy
3:15 AM 58.5 °F 56.3 °F 93% 29.95 in 10.0 mi North 8.1 mph - N/A   Overcast
3:35 AM 59.0 °F 56.5 °F 91% 29.96 in 10.0 mi North 9.2 mph - N/A   Overcast
3:55 AM 59.0 °F 57.2 °F 94% 29.96 in 10.0 mi North 8.1 mph - N/A   Mostly Cloudy
4:15 AM 58.3 °F 55.9 °F 92% 29.96 in 10.0 mi North 6.9 mph - N/A   Clear
4:35 AM 58.3 °F 55.9 °F 92% 29.96 in 10.0 mi NNW 6.9 mph - N/A   Clear
5:00 AM 58.3 °F 56.3 °F 93% 29.97 in 10.0 mi North 3.5 mph - N/A   Scattered Clouds
5:15 AM 58.3 °F 56.3 °F 93% 29.96 in 7.0 mi North 4.6 mph - N/A   Mostly Cloudy
5:35 AM 58.3 °F 56.5 °F 94% 29.96 in 7.0 mi North 3.5 mph - N/A   Overcast
5:55 AM 58.3 °F 56.5 °F 94% 29.98 in 5.0 mi NNW 4.6 mph - N/A   Mostly Cloudy
6:15 AM 58.3 °F 56.5 °F 94% 29.99 in 5.0 mi NNW 5.8 mph - N/A   Overcast
6:35 AM 58.3 °F 56.3 °F 93% 29.99 in 7.0 mi North 3.5 mph - N/A   Overcast
6:55 AM 58.6 °F 56.5 °F 93% 29.99 in 10.0 mi North 3.5 mph - N/A   Overcast
7:15 AM 60.8 °F 58.3 °F 91% 30.01 in 10.0 mi North 5.8 mph - N/A   Overcast
7:35 AM 60.8 °F 58.3 °F 91% 30.03 in 10.0 mi NNW 6.9 mph - N/A   Overcast
7:55 AM 60.8 °F 58.1 °F 91% 30.02 in 10.0 mi NNE 8.1 mph - N/A   Overcast
8:15 AM 59.0 °F 56.3 °F 91% 30.03 in 10.0 mi NNE 9.2 mph - N/A   Overcast
8:35 AM 60.8 °F 57.9 °F 90% 30.04 in 10.0 mi NE 8.1 mph - N/A   Overcast
8:55 AM 60.8 °F 57.7 °F 90% 30.04 in 7.0 mi NNE 6.9 mph - N/A   Overcast
9:15 AM 60.4 °F 57.9 °F 91% 30.05 in 10.0 mi North 5.8 mph - N/A   Overcast
9:35 AM 58.8 °F 56.3 °F 91% 30.06 in 10.0 mi North 5.8 mph - N/A   Overcast
9:55 AM 58.5 °F 56.3 °F 93% 30.07 in 10.0 mi North 3.5 mph - N/A   Overcast
10:15 AM 59.0 °F 56.1 °F 90% 30.07 in 10.0 mi North 6.9 mph - N/A   Overcast
10:35 AM 58.3 °F 55.8 °F 91% 30.06 in 7.0 mi North 8.1 mph - N/A   Overcast
10:55 AM 58.3 °F 55.9 °F 92% 30.06 in 5.0 mi North 8.1 mph - N/A   Overcast
11:15 AM 58.3 °F 55.9 °F 92% 30.07 in 4.0 mi North 8.1 mph - N/A   Overcast
11:35 AM 60.4 °F 57.0 °F 88% 30.08 in 10.0 mi North 5.8 mph - N/A   Overcast
11:55 AM 60.4 °F 57.0 °F 88% 30.08 in 7.0 mi North 6.9 mph - N/A   Overcast
12:15 PM 60.8 °F 56.5 °F 86% 30.07 in 10.0 mi North 6.9 mph - N/A   Overcast
12:35 PM 62.1 °F 57.2 °F 84% 30.07 in 10.0 mi NNE 10.4 mph - N/A   Overcast
12:55 PM 61.5 °F 56.5 °F 83% 30.07 in 10.0 mi NNE 9.2 mph - N/A   Overcast
1:15 PM 60.8 °F 55.9 °F 84% 30.07 in 10.0 mi NNE 6.9 mph - N/A   Overcast
1:35 PM 60.8 °F 55.8 °F 83% 30.07 in 10.0 mi NNE 9.2 mph - N/A   Overcast
1:55 PM 62.1 °F 56.1 °F 81% 30.07 in 10.0 mi NNE 6.9 mph - N/A   Overcast
2:15 PM 62.6 °F 56.1 °F 79% 30.07 in 10.0 mi NE 4.6 mph - N/A   Overcast
2:35 PM 63.5 °F 56.3 °F 77% 30.07 in 10.0 mi NNE 6.9 mph - N/A   Overcast
2:55 PM 63.5 °F 56.8 °F 79% 30.07 in 10.0 mi NNE 4.6 mph - N/A   Overcast
3:15 PM 64.0 °F 56.7 °F 77% 30.06 in 10.0 mi ENE 6.9 mph - N/A   Overcast
3:35 PM 64.4 °F 56.8 °F 76% 30.06 in 10.0 mi East 5.8 mph - N/A   Overcast
3:55 PM 64.0 °F 56.5 °F 76% 30.06 in 10.0 mi ESE 4.6 mph - N/A   Overcast
4:15 PM 64.9 °F 57.2 °F 76% 30.05 in 10.0 mi Calm Calm - N/A   Overcast
4:35 PM 64.4 °F 57.0 °F 77% 30.06 in 10.0 mi ENE 4.6 mph - N/A   Overcast
4:55 PM 64.0 °F 56.7 °F 77% 30.06 in 10.0 mi East 3.5 mph - N/A   Overcast
5:15 PM 66.2 °F 57.6 °F 74% 30.05 in 10.0 mi NE 3.5 mph - N/A   Overcast
5:35 PM 66.2 °F 57.4 °F 73% 30.05 in 10.0 mi East 3.5 mph - N/A   Overcast
5:55 PM 66.2 °F 56.7 °F 71% 30.04 in 10.0 mi NE 4.6 mph - N/A   Mostly Cloudy
6:15 PM 66.2 °F 56.8 °F 72% 30.05 in 10.0 mi East 5.8 mph - N/A   Scattered Clouds
6:35 PM 66.2 °F 56.8 °F 72% 30.05 in 10.0 mi ENE 4.6 mph - N/A   Scattered Clouds
6:55 PM 66.2 °F 57.2 °F 73% 30.05 in 10.0 mi ENE 3.5 mph - N/A   Mostly Cloudy
7:15 PM 66.2 °F 57.7 °F 74% 30.05 in 10.0 mi Calm Calm - N/A   Overcast
7:35 PM 63.9 °F 54.5 °F 72% 30.06 in 10.0 mi ESE 8.1 mph - N/A   Overcast
7:55 PM 63.5 °F 52.7 °F 68% 30.06 in 10.0 mi ESE 9.2 mph - N/A   Overcast
8:15 PM 62.1 °F 50.7 °F 66% 30.06 in 10.0 mi ESE 6.9 mph - N/A   Overcast
8:35 PM 60.8 °F 50.5 °F 69% 30.06 in 10.0 mi ESE 5.8 mph - N/A   Mostly Cloudy
8:55 PM 58.3 °F 49.6 °F 73% 30.06 in 10.0 mi ESE 4.6 mph - N/A   Clear
9:15 PM 57.7 °F 51.4 °F 79% 30.07 in 10.0 mi ESE 4.6 mph - N/A   Clear
9:35 PM 55.8 °F 49.3 °F 79% 30.08 in 10.0 mi SSE 5.8 mph - N/A   Clear
9:55 PM 55.8 °F 50.7 °F 83% 30.08 in 10.0 mi SE 5.8 mph - N/A   Clear
10:15 PM 55.8 °F 49.3 °F 79% 30.08 in 10.0 mi SE 5.8 mph - N/A   Clear
10:35 PM 55.8 °F 49.3 °F 79% 30.09 in 10.0 mi SE 5.8 mph - N/A   Clear
10:55 PM 55.8 °F 50.0 °F 81% 30.08 in 10.0 mi SE 4.6 mph - N/A   Clear
11:15 PM 55.8 °F 48.4 °F 76% 30.08 in 10.0 mi ESE 4.6 mph - N/A   Clear
11:35 PM 52.7 °F 47.3 °F 82% 30.08 in 10.0 mi East 3.5 mph - N/A   Clear
11:55 PM 51.1 °F 46.4 °F 84% 30.08 in 10.0 mi Calm Calm - N/A   Clear